ATLAS 5 CENTAUR DEB, 46464

Orbit data source: Space-Track

ATLAS 5 CENTAUR DEB, 46464 is space debris in HEO originally from a launch on Wed, 17 Sep 2014 UTC launched from the Air Force Eastern Test Range (AFETR). Debris objects in space refer to the collection of defunct objects orbiting the Earth. Examples of debris include non-operational satellites, rocket bodies, and fragments generated from explosions, collisions, or faulty payload assembly.

Loading next visibility...
ATLAS 5 CENTAUR DEB details
Identifier
46464, 2014-055CL
Orbit
HEO
Last TLE update4 days ago
Origin
Flag of USULA (US)
ManufacturerUnknown
MissionSpacecraft
Bus & MotorUnknown
MassUnknown
Launch date (UTC)
2014-09-17 (10 years ago)
Launch vehicleUnknown
Launch site
Air Force Eastern Test Range (AFETR)
Object type
Payload
Rocket body
Debris
Shape & HBRUnknown
Radar Cross SectionRCS unknown

Expand to show TLE details & history

TLE from 4 days ago
0 ATLAS 5 CENTAUR DEB
1 46464U 14055CL  24344.42544525 -.00000028  00000-0  00000+0 0  9997
2 46464  19.5718 206.8719 4917829  55.5129 341.7475  1.82527901 33694
Epoch: 2024-12-09T10:12Z
Definitive object data (Epoch: 2024-12-09T10:12:38.469Z)
Latitude-0.00006°
Longitude-24.873°
Altitude10,362.122 km
Speed5.79 km/s
True Right ascension13h 47m 44s
True Declination0° 00' 00"
Sunlit
Object was in daylight at TLE epoch
Visualization TLE readout
Latitude3.40555°
Longitude145.12282°
Altitude20,320.197 km
Speed3.971 km/s
Apparent Right ascension00h 26m 47s
Apparent Declination-5° 10' 18"
Sunlit
Object is in daylight
Visualization observer readout
Local Sidereal Time07:26:12
Azimuth275.619° WNW
Elevation-14.695°
Doppler factor1
Orbital elements
Apogee altitude35,815.959 km
Perigee altitude7,996.449 km
Semi-major axis28,284.341 km
Eccentricity0.4917829
Inclination19.5718°
RAAN206.8719°
Arg. of periapsis55.5129°
True anomaly304.68657°
Mean anomaly341.7475°
Eccentric anomaly325.98493°
Mean motion0.45627 °/min
BSTARUnknown
Orbital period789 mins
Loading maneuver chart data...

ATLAS 5 CENTAUR DEB Visibility forecast

Observer location: undefined°, undefined

Span
Click to sort rows by Start time (UTC) header in descending order
Start Az.
Max El. time (UTC)
Max El. Az.
Max El.
End time (UTC)
End Az.
125 mins2024-12-13 19:37:31.818Z245.822° WSW2024-12-13 20:19:31.818Z172.44° S39.242°2024-12-13 21:42:31.818Z102.72° ESE
|